Weather Service Report


434 
ASCA44 KEWX 170220
RWRMX 

LATIN AMERICA AND CARIBBEAN REGIONAL WEATHER ROUNDUP
NATIONAL WEATHER SERVICE AUSTIN/SAN ANTONIO TX
800 PM CST MON JAN 16 2017

NOTE: "FAIR" INDICATED FEW OR NO CLOUDS BELOW 12,000 FEET WITH NO
SIGNIFICANT WEATHER AND/OR OBSTRUCTIONS TO VISIBILITY.

BAJA CALIFORNIA
  
CITY           SKY/WX    TMP DP  RH WIND       PRES   REMARKS
LORETO         PTCLDY    64  55  72 NE6       29.94R                  
LA PAZ         PTCLDY    64  45  48 CALM      29.97                   
MEXICALI       PTCLDY    61  48  63 NW5       30.04                   
S.J. DEL CABO  PTCLDY    64  50  59 SE8       29.97R                  
TIJUANA        CLEAR     55  48  76 W6        30.05R                  

NORTHWESTERN MEXICO
  
CITY           SKY/WX    TMP DP  RH WIND       PRES   REMARKS
CULIACAN       MOCLDY    64  48  55 CALM      29.93                   
DURANGO        CLOUDY    59  30  33 SW16      30.13                   
GUAYMAS        CLEAR     64  54  68 CALM      29.91                   
HERMOSILLO     CLEAR     61  48  63 W5        29.98R                  
CD. JUAREZ     PTCLDY    52  37  58 CALM      29.98                   
LOS MOCHIS     CLEAR     61  46  59 NW8       29.94S                  
OBREGON        CLEAR     59  48  67 W5        29.91                   

NORTHEASTERN MEXICO
  
CITY           SKY/WX    TMP DP  RH WIND       PRES   REMARKS
CHIHUAHUA      PTCLDY    48  23  37 CALM      29.98                   
MATAMOROS      MOCLDY    70  68  94 SE5       29.95                   
MONCLOVA         N/A    N/A N/A N/A MISG        N/A                   
MONTERREY      CLOUDY    66  57  72 SE3       29.97R                  
NUEVO LAREDO   MOCLDY    68  57  68 CALM      29.95                   
PIEDRAS NEGRAS   N/A    N/A N/A N/A MISG        N/A                   
REYNOSA        MOCLDY    72  64  78 SE6       29.95                   
SALTILLO       CLOUDY    57  48  72 N9        30.11R                  
TORREON        MOCLDY    70  36  28 CALM      29.94R                  
CD. VICTORIA   PTCLDY    75  59  57 SE5       29.93                   

WESTERN MEXICO
  
CITY           SKY/WX    TMP DP  RH WIND       PRES   REMARKS
AGUASCALIENTES CLEAR     61  28  29 S7        30.16                   
COLIMA         PTCLDY    68  66  94 W7        30.01R                  
DEL BAJIO      CLEAR     64  36  34 W5        30.19R                  
GUADALAJARA    PTCLDY    63  34  34 SW3       30.09                   
MANZANILLO     CLEAR     73  64  73 N7        29.84R                  
MAZATLAN       MOCLDY    64  59  82 CALM      29.93R                  
P. VALLARTA    CLOUDY    73  66  78 S2        29.92S                  
URUAPAN          N/A    N/A N/A N/A MISG        N/A                   
ZACATECAS      MOCLDY    57  28  33 W10       30.19R                  

CENTRAL MEXICO
  
CITY           SKY/WX    TMP DP  RH WIND       PRES   REMARKS
CUERNAVACA       N/A    N/A N/A N/A MISG        N/A                   
MEXICO CITY    CLEAR     63  34  34 S10       30.23R                  
MORELIA        CLEAR     61  39  44 CALM      30.16                   
POZA RICA      CLEAR     72  70  94 SE7       29.95R                  
PUEBLA         CLEAR     57  36  44 SW7       30.23R                  
QUERETARO        N/A    N/A N/A N/A MISG        N/A                   
S. LUIS POTOSI PTCLDY    63  30  29 E5        30.12R                  
TAMPICO        PTCLDY    73  68  83 SE15      29.94                   
TOLUCA         CLEAR     52  36  54 CALM      30.32R                  

SOUTHERN MEXICO
  
CITY           SKY/WX    TMP DP  RH WIND       PRES   REMARKS
ACAPULCO       CLEAR     79  72  78 W5        29.87R                  
B. DE HUATULCO MOCLDY    77  68  73 CALM      29.96                   
OAXACA         CLEAR     70  50  49 SE9       30.13R                  
P. ESCONDIDO     N/A    N/A N/A N/A MISG        N/A                   
VERACRUZ       PTCLDY    75  70  83 E6        29.92R                  
ZIHUATANEJO    CLEAR     77  70  78 CALM      29.87R                  

YUCATAN PENINSULA
  
CITY           SKY/WX    TMP DP  RH WIND       PRES   REMARKS
CAMPECHE       CLEAR     82  66  57 E12G23    29.93R                  
CANCUN         PTCLDY    77  68  73 E6        30.06R                  
CHETUMAL       PTCLDY    77  72  83 CALM      30.01                   
CD. DEL CARMEN CLEAR     81  70  69 SE12      29.94                   
COZUMEL        PTCLDY    73  70  88 CALM      30.03R                  
MERIDA         PTCLDY    79  64  61 E12       30.00R                  
MINATITLAN     CLEAR     75  68  78 N9        29.91                   
TAPACHULA      MOCLDY    77  70  78 CALM      29.90R                  
TUX. GUTIERREZ PTCLDY    77  61  57 W13       29.92R                  
VILLAHERMOSA   CLEAR     75  66  73 E9        29.92R                  

CENTRAL AMERICA
  
CITY           SKY/WX    TMP DP  RH WIND       PRES   REMARKS
BELIZE CITY    PTCLDY    77  72  83 E6        29.99R                  
MANAGUA        PTCLDY    73  70  88 E5        29.89R                  

CARIBBEAN
  
CITY           SKY/WX    TMP DP  RH WIND       PRES   REMARKS
ARUBA          PTCLDY    77  68  73 E10       29.94S                  
CURACAO        PTCLDY    79  70  73 E10       29.97S                  
KINGSTON       PTCLDY    81  66  61 W7        30.03R                  
NASSAU         PTCLDY    72  63  73 NE2       30.24R                  
SAN JUAN       PTCLDY    75  70  83 NE9       30.10R                  
SANTO DOMINGO  PTCLDY    72  66  83 NE6       30.09S                  
ST. CROIX      CLEAR     75  63  64 E10       30.08R                  
ST. KITTS      PTCLDY    77  68  73 NE17      30.06S                  
ST. MAARTEN    PTCLDY    77  64  65 E15       30.06                   
ST. THOMAS     PTCLDY    77  66  69 NE10      30.08R                  

$$

  

Return to Home page


Western Regional Climate Center, wrcc@dri.edu